Volver al catálogo

STARLINK-35629

ActivoComunicacionesVLEO
NORAD 66127·PAYLOAD·🇺🇸 United States

Lanzado Oct 22, 2025 desde Vandenberg Space Force Base

Loading…

Próximos Pases (próximas 24 horas)

TLE

ActualizadoSource: CelesTrak SupGP

Época: Sep 14, 2026, 21:17 UTC

1 66127C 25237P   26257.88729167  .00050582  00000+0  14945-2 0  2572
2 66127  53.1582 239.6489 0001382  96.0001 276.9352 15.34364984    11

Sigue STARLINK-35629 en tiempo real con AllMySat

Download on the App Store